Wind_Speed
28 26 21 18 19 19 20 21 19 19 22 22 22 24 26 26 25 26 25 20 17 16 16 16 17 16 16 16 17 17 19 20 21 22 22 23 23 24 25 26 27 27 28 29 28 27 26 27 28 29 30 31 32 32 31 31 30 29 30 30 31 33 34 36 38 40 42 43 45 48 50 52 54 56 56 57 57 56 56 56 55 55 54 53 52
28 25 19 16 18 19 20 21 21 21 22 22 22 23 24 25 26 27 24 20 17 15 16 17 16 16 17 17 17 18 19 21 21 21 22 23 24 25 26 27 28 29 30 30 29 27 28 29 30 30 31 31 31 30 29 29 28 28 29 30 32 34 36 38 40 42 44 46 48 50 52 55 57 58 58 57 57 56 56 55 55 54 53 52 50
25 21 17 17 19 19 20 21 22 22 21 21 22 23 24 24 24 24 22 19 16 15 16 16 16 17 17 17 18 19 20 20 21 21 23 24 25 27 27 27 27 28 29 29 28 28 30 30 30 30 30 30 29 28 28 27 28 29 30 32 34 36 38 40 42 43 45 48 50 52 55 56 57 57 57 56 55 55 54 53 51 51 50 49 48
23 19 20 22 22 21 22 23 22 21 21 21 23 24 24 23 22 21 20 17 14 14 15 16 17 18 18 18 19 20 20 20 21 22 24 25 27 27 27 26 26 27 27 27 28 29 30 30 30 30 29 28 27 27 27 27 28 30 32 34 36 38 40 41 43 45 47 50 52 54 56 56 56 55 54 52 51 50 50 49 49 49 49 48 48
23 21 21 23 22 22 24 24 22 22 21 22 24 25 23 21 19 19 17 14 13 14 15 17 18 18 18 19 20 20 20 21 22 23 24 25 25 26 26 26 27 28 27 27 28 28 29 29 29 28 27 26 26 26 27 28 29 31 33 35 37 39 40 42 44 46 49 51 53 55 55 55 54 52 51 49 47 46 47 47 47 47 47 47 46
23 22 22 22 21 21 21 22 23 23 22 24 24 22 19 17 16 15 14 14 15 15 16 17 18 19 19 20 20 21 22 22 22 23 23 23 23 23 24 25 26 27 27 26 27 27 28 28 27 26 25 26 26 26 27 29 31 33 35 37 38 40 41 43 45 48 50 52 54 54 53 51 49 48 46 45 44 43 44 45 45 44 44 43 42
23 22 20 19 19 18 19 21 23 23 23 24 23 19 16 15 14 13 13 14 15 16 17 18 19 20 20 21 21 22 23 22 22 22 21 22 23 24 24 25 26 26 26 26 26 26 27 26 25 25 25 26 26 26 28 30 32 34 36 37 38 40 42 44 47 49 51 52 52 51 49 47 45 43 43 42 42 41 41 41 41 40 39 39 38
22 20 17 16 16 15 16 19 21 22 22 22 20 17 15 13 13 14 14 15 16 16 17 18 20 20 21 22 22 23 23 22 22 21 21 23 24 25 26 27 27 26 25 25 26 26 25 24 24 24 25 26 26 27 29 31 33 35 36 37 39 41 43 45 48 50 51 50 49 46 44 42 41 40 40 39 39 39 39 38 38 37 37 37 37
21 18 15 14 13 13 14 15 18 21 20 19 17 15 14 13 14 15 15 16 16 16 17 18 19 20 21 22 23 23 23 23 22 22 23 25 26 26 27 27 26 25 25 25 25 24 24 23 24 24 25 26 27 28 30 32 33 35 36 38 40 42 44 46 48 49 49 47 44 42 40 38 38 38 38 37 37 37 37 37 37 37 37 37 37
20 18 16 14 13 14 14 14 15 17 19 18 16 14 14 14 15 16 16 16 15 16 17 18 18 20 21 22 23 24 24 23 23 24 26 27 27 28 28 27 25 25 24 24 23 23 23 23 24 24 24 26 27 29 31 32 34 35 36 38 40 42 45 47 48 47 46 43 41 38 36 36 36 37 36 36 36 36 36 36 37 37 36 36 35
20 18 17 15 13 14 15 15 15 16 18 19 17 16 15 16 16 16 16 16 16 17 17 17 18 20 21 23 24 25 25 24 25 26 27 27 27 27 26 25 24 23 23 23 22 23 23 23 23 23 24 26 28 29 31 33 34 35 37 39 41 43 45 46 46 45 43 40 37 35 34 34 35 34 34 34 35 36 36 38 39 38 37 36 35
20 19 18 17 15 14 15 16 17 17 18 20 19 17 16 17 17 18 18 18 19 19 19 19 19 20 20 22 23 23 23 23 24 25 25 25 25 24 24 23 23 22 22 22 22 22 22 22 22 23 25 26 28 30 32 33 34 36 37 39 41 43 44 44 43 42 40 37 35 33 33 33 33 31 31 32 34 35 37 38 39 40 40 39 37
19 18 18 17 16 15 16 17 17 18 20 22 22 18 17 17 18 19 20 21 22 22 21 20 20 20 20 20 20 20 21 21 22 23 23 22 22 22 22 22 22 21 21 22 22 22 21 21 22 24 25 27 29 31 32 33 34 36 38 39 41 42 43 43 42 40 37 35 33 32 32 32 30 29 30 32 33 33 35 36 37 39 40 41 40
21 18 18 19 19 18 18 18 18 18 20 23 25 21 18 18 18 19 20 20 20 20 20 20 20 20 19 18 18 19 20 21 21 21 21 21 21 21 21 21 21 21 21 21 21 20 20 21 23 25 26 28 30 31 32 34 35 36 38 39 41 42 42 41 40 38 35 32 32 31 31 30 28 28 30 31 31 32 33 34 35 37 39 40 41
23 20 19 19 19 19 20 19 19 19 19 20 21 20 18 18 18 19 20 19 19 19 20 20 20 20 19 18 18 18 19 20 20 20 21 21 21 21 20 20 20 20 21 21 20 20 21 22 24 25 27 29 31 32 33 34 35 36 38 39 40 41 40 39 37 35 32 31 30 30 29 27 27 28 29 29 30 31 32 33 34 36 37 38 40
24 23 21 20 20 20 20 20 19 19 19 19 19 19 19 19 21 21 21 21 20 20 20 20 19 19 19 19 19 19 20 20 21 21 21 21 21 20 20 20 20 20 20 20 19 20 22 23 24 26 28 30 31 32 33 34 35 36 37 38 39 39 38 37 35 32 30 29 29 29 27 26 25 27 27 27 28 29 30 31 33 34 36 37 38
30 28 25 23 22 22 21 21 20 20 20 20 20 21 21 22 22 23 23 22 22 22 21 20 19 19 19 20 20 20 20 21 21 21 21 21 20 20 19 20 20 20 20 19 20 21 22 24 25 27 29 30 31 32 32 33 34 35 36 38 38 38 37 35 33 30 29 28 28 27 25 24 24 25 25 26 27 28 29 30 31 32 34 36 37
31 30 27 25 23 23 22 22 22 22 22 23 23 23 23 23 23 23 23 23 23 24 23 21 20 20 20 21 21 21 21 21 21 22 21 21 20 20 20 20 20 20 20 20 20 21 23 24 26 28 30 31 31 32 32 33 34 35 37 38 38 37 36 34 31 29 28 28 27 26 24 23 23 24 24 25 26 27 28 29 31 32 34 35 37
31 29 28 27 25 24 24 24 25 24 24 25 24 24 24 24 24 24 23 23 24 24 23 22 21 21 21 21 21 21 21 21 22 22 21 20 20 20 20 20 20 20 20 20 21 22 23 25 27 29 30 31 31 32 32 33 34 35 37 37 37 36 35 32 29 28 27 26 26 25 23 22 23 24 24 24 24 25 27 29 31 32 34 36 37
28 28 28 28 27 25 25 25 26 27 27 26 25 24 24 25 26 25 24 24 23 22 22 21 21 21 21 21 21 21 21 21 22 22 21 20 20 20 20 20 20 20 20 20 21 23 24 26 27 29 30 30 31 32 32 33 34 35 36 36 35 34 32 29 27 26 26 26 25 24 22 22 23 24 24 24 25 25 26 27 29 31 33 35 36
25 26 27 28 27 26 25 25 25 25 25 25 23 24 25 26 27 26 24 23 22 21 21 21 21 21 21 21 21 21 21 22 22 21 20 20 20 20 20 20 20 20 20 21 22 23 25 26 28 29 30 30 31 31 31 32 34 34 34 34 33 31 29 27 26 25 25 25 25 24 23 22 23 24 25 25 26 26 26 27 28 30 32 33 35
24 24 24 25 25 25 25 25 24 25 25 25 24 25 25 26 28 28 25 22 21 21 21 21 21 21 21 20 20 21 21 21 21 20 20 20 20 21 21 21 20 20 21 22 23 24 25 27 28 29 30 30 30 30 31 32 33 33 33 32 31 30 28 26 25 25 25 25 25 24 23 23 24 24 25 26 27 28 28 29 29 30 31 33 34
25 24 24 24 24 24 24 24 25 25 26 26 25 24 23 23 25 26 24 22 22 21 21 21 21 20 20 20 20 21 21 21 21 21 21 21 21 21 21 20 20 21 21 22 23 25 26 27 28 29 29 29 30 29 30 31 32 32 31 31 29 28 26 25 25 25 25 25 24 24 24 24 24 25 26 27 28 28 30 30 31 32 32 33 34
25 25 25 25 24 24 24 24 24 25 25 25 24 22 21 19 19 20 20 21 21 21 20 21 20 20 20 20 20 20 21 21 21 22 22 21 21 21 21 20 21 21 22 23 24 25 26 27 28 29 29 29 29 29 29 31 31 31 30 29 28 27 25 24 24 24 25 25 25 24 24 24 25 25 26 27 28 29 30 31 32 33 34 34 34
23 23 23 23 23 23 23 23 24 24 24 24 24 23 21 20 19 19 19 20 21 20 20 20 20 20 20 20 20 21 21 22 22 22 22 21 21 21 20 20 21 22 23 24 24 25 26 27 28 28 28 28 28 28 29 30 30 30 29 28 27 26 25 25 24 24 25 25 25 25 25 25 26 26 27 27 28 29 30 31 32 33 34 35 35
21 22 22 22 21 21 22 23 24 24 24 24 24 22 21 21 21 20 20 20 20 20 20 20 20 19 19 20 21 22 22 23 23 22 21 21 20 20 20 21 21 23 23 24 24 25 26 27 27 28 28 28 27 28 29 29 29 29 28 27 26 26 25 25 25 25 25 26 26 26 26 27 27 27 28 28 29 30 30 31 31 32 33 34 35
21 21 22 23 23 23 23 24 24 25 24 24 23 21 21 21 21 21 20 20 20 20 20 19 19 19 20 20 21 22 23 23 22 21 20 20 20 20 21 21 22 23 24 24 24 25 26 27 27 27 27 27 27 27 28 29 29 28 27 26 26 25 25 25 25 25 25 26 26 27 27 28 28 29 29 29 30 31 31 32 32 33 33 33 34
22 22 22 23 22 22 23 24 25 25 24 23 22 21 22 22 21 20 20 20 20 20 19 19 19 19 20 21 22 22 22 22 21 20 20 20 20 21 21 22 23 24 23 23 24 24 25 26 27 27 27 27 27 27 27 28 28 27 26 25 25 25 25 25 25 25 25 26 26 27 28 28 29 30 30 31 31 31 32 33 33 34 34 35 34
23 23 22 22 21 21 21 22 23 24 23 22 21 22 22 21 20 20 20 20 20 20 19 19 20 20 21 22 22 22 22 21 20 19 20 20 21 21 22 23 24 23 23 23 24 24 25 26 27 27 27 27 26 26 27 27 27 27 26 25 24 24 25 25 25 25 26 26 26 27 28 29 29 30 31 31 31 31 32 33 33 34 35 35 35
25 24 24 22 21 21 22 23 23 24 23 23 22 22 22 20 20 20 20 20 20 20 19 20 20 20 21 21 21 21 21 20 19 20 20 21 22 22 23 24 24 23 23 23 24 24 25 26 27 27 27 27 26 26 26 27 27 27 25 24 24 24 25 25 25 26 26 26 27 27 28 29 29 30 30 31 31 31 31 32 33 34 34 34 34
27 26 26 24 23 23 24 24 24 25 25 24 23 22 22 21 21 21 21 21 20 20 19 19 20 20 21 21 21 20 20 19 20 21 21 22 23 23 24 24 24 24 24 24 24 25 25 26 27 27 27 27 26 26 26 27 27 26 25 24 24 24 25 25 25 26 26 27 27 28 28 29 29 30 30 30 31 31 32 32 33 34 34 34 35
29 29 29 28 28 27 25 25 25 25 25 25 23 23 23 22 22 22 22 21 20 19 19 19 20 20 21 20 20 20 20 20 21 22 22 23 24 24 24 24 24 24 24 25 25 25 26 26 27 27 27 26 26 25 26 26 27 26 25 24 24 24 25 25 26 26 27 27 28 28 28 29 29 30 30 31 31 32 32 33 33 34 34 34 35
32 32 32 32 31 30 27 25 25 26 26 25 25 25 24 23 22 22 22 22 20 20 19 19 20 20 20 20 20 20 20 21 22 23 23 24 24 24 24 24 25 25 25 25 26 26 26 27 27 27 27 26 26 25 26 26 27 27 25 24 24 24 25 26 26 27 28 28 28 28 29 29 30 30 31 32 33 33 34 34 35 35 35 35 35
37 37 35 33 32 30 28 27 26 27 27 27 27 26 25 24 23 23 23 22 21 20 19 19 19 20 20 20 20 21 21 22 23 23 24 24 24 25 25 25 25 25 26 26 27 27 27 27 28 28 27 26 25 25 26 26 27 27 26 25 25 25 26 26 27 28 28 29 29 29 29 30 31 32 33 33 34 34 35 36 36 36 36 36 36
37 37 37 35 33 31 30 29 28 28 29 29 28 27 26 25 24 24 24 23 21 20 19 19 19 20 20 20 21 21 22 22 23 23 24 24 25 25 25 25 26 26 27 27 27 28 28 28 28 28 28 27 26 25 26 27 27 27 26 26 25 26 26 27 27 28 29 30 30 30 30 31 32 33 34 34 35 36 36 37 37 38 38 37 38
34 33 33 34 33 33 32 31 29 29 30 30 29 28 26 26 25 25 25 24 22 20 20 20 20 20 20 20 21 21 22 22 23 23 24 24 25 25 26 26 26 27 28 28 28 28 28 28 29 29 28 27 26 25 26 27 27 27 27 26 26 27 27 27 28 29 30 30 31 31 32 32 33 34 34 35 36 37 38 38 38 38 39 39 39
36 34 33 32 31 31 32 31 30 30 31 31 30 29 27 27 27 27 26 25 23 22 21 21 21 21 21 21 21 22 22 22 23 23 24 24 24 25 26 26 27 28 28 29 29 29 29 29 30 29 28 27 26 26 26 27 28 28 27 27 27 27 28 28 29 30 30 31 31 32 33 34 34 35 35 36 37 38 39 40 40 40 40 41 41
37 36 35 35 34 33 33 33 31 31 32 32 31 30 29 28 29 29 28 27 25 24 23 22 22 21 21 21 22 22 23 23 24 24 24 24 24 25 26 26 27 28 29 30 30 30 31 31 30 29 28 27 27 27 27 28 28 29 28 28 28 28 29 29 30 31 31 32 33 33 34 35 35 36 37 38 39 40 40 41 41 41 42 42 43
34 34 34 35 35 34 34 33 32 32 33 33 32 31 31 31 31 31 30 29 28 26 25 24 24 23 22 22 23 24 24 25 25 24 24 24 25 25 26 26 27 28 30 31 32 32 32 31 30 29 28 28 27 27 28 29 29 30 29 29 29 29 30 31 31 32 33 33 34 35 35 36 37 38 39 40 41 42 42 42 42 43 43 44 44
32 33 33 34 33 33 34 35 35 34 34 34 34 34 33 33 33 33 32 32 31 29 28 27 26 25 25 25 25 26 26 26 26 25 26 26 27 27 27 28 29 30 32 32 33 33 33 31 30 29 29 28 28 28 29 30 30 30 30 30 30 30 31 32 33 34 34 35 35 36 37 38 39 40 41 42 43 43 44 44 44 45 45 46 46
30 32 33 34 33 33 34 35 35 35 35 36 36 36 35 35 35 35 34 34 33 31 31 30 29 28 28 29 29 29 29 28 28 28 29 29 29 29 30 31 31 32 33 34 34 34 33 31 30 29 29 29 29 29 30 31 31 31 31 31 31 32 32 33 34 35 36 36 37 38 39 40 41 42 43 44 45 45 45 46 46 47 48 48 49
30 31 31 31 31 32 34 36 36 36 36 36 37 37 37 36 36 37 36 36 35 34 33 33 33 32 32 33 34 33 32 31 31 31 32 32 32 33 34 35 34 34 35 36 36 35 33 31 30 29 29 29 29 30 31 32 32 32 32 32 32 33 34 35 36 37 37 38 39 40 41 42 43 44 45 46 46 47 47 47 48 49 50 50 51
29 30 31 30 29 31 34 37 36 36 37 37 37 37 37 37 38 38 38 37 36 36 36 36 36 36 36 37 38 37 36 35 35 36 36 36 36 37 38 38 37 37 37 37 36 35 33 31 30 29 29 29 30 31 32 32 32 32 32 33 33 34 36 37 37 38 39 40 41 42 43 44 46 47 47 48 48 48 49 49 50 50 51 52 54
28 29 30 30 29 28 29 30 31 32 35 38 38 39 40 40 39 38 39 38 38 37 38 39 39 40 41 41 41 40 40 40 40 40 41 41 41 42 42 41 40 40 39 38 36 34 32 31 30 29 29 30 31 32 32 32 32 32 33 34 35 36 37 38 39 40 41 42 44 45 46 47 48 48 49 49 49 50 50 51 52 52 53 55 56
29 29 30 31 30 29 27 28 28 29 30 31 32 34 37 41 42 40 39 39 39 39 40 41 42 44 44 44 45 44 44 44 44 44 44 45 47 47 46 44 43 41 39 37 35 33 31 30 29 29 30 30 31 32 33 33 33 33 34 35 36 37 38 39 40 41 43 44 46 47 48 48 49 49 50 50 51 51 52 53 54 55 57 58 59
28 29 29 30 31 31 30 31 31 30 29 29 30 30 31 35 39 42 41 41 40 41 41 42 44 46 47 47 48 48 48 48 48 48 48 50 51 51 49 47 44 41 38 35 33 32 30 30 30 29 30 31 32 33 33 34 34 34 35 36 37 39 39 40 42 43 45 46 47 48 49 50 50 50 51 52 52 53 55 56 57 58 60 61 61
27 28 28 29 30 30 31 32 33 33 32 33 33 33 32 31 33 36 40 42 43 44 44 44 46 48 49 50 50 51 51 51 51 51 52 54 54 52 50 48 44 40 36 34 32 31 30 30 29 29 30 32 33 34 34 34 35 35 37 38 39 40 41 42 44 45 46 47 48 49 50 51 51 52 53 54 55 56 57 58 59 61 62 63 62
27 27 28 28 29 29 30 30 31 32 32 32 32 33 33 32 32 32 34 36 38 40 41 43 45 47 49 50 51 52 52 52 53 54 56 57 56 54 51 47 42 37 34 32 31 30 30 30 29 30 31 33 34 34 35 35 36 37 38 39 41 42 43 44 46 47 48 49 50 51 51 52 53 54 55 56 57 58 59 60 62 63 63 63 63
28 28 28 28 29 30 31 31 31 32 32 32 32 32 32 33 33 33 33 34 34 35 36 37 39 40 41 43 45 47 48 50 52 54 56 57 57 54 49 43 38 34 32 30 30 30 30 29 30 31 33 34 34 35 36 36 37 39 40 41 42 43 45 47 48 49 50 51 51 52 53 54 55 56 57 58 59 60 61 63 63 63 63 63 63
28 28 29 29 30 31 32 32 33 33 33 33 34 34 34 34 34 35 36 36 36 36 36 37 38 38 39 40 41 42 44 46 47 50 52 54 53 49 44 39 35 32 30 30 30 30 29 30 31 32 33 34 35 36 37 38 39 40 42 43 44 46 47 48 49 50 51 52 53 54 55 56 57 58 59 60 61 62 63 64 64 63 63 64 64
29 30 30 31 32 33 33 34 34 35 35 35 36 36 36 36 37 37 38 38 39 39 39 40 40 40 40 41 41 42 43 44 45 46 47 48 46 44 40 35 32 30 30 29 29 29 29 31 32 33 34 35 36 37 38 40 41 42 44 45 47 48 49 50 51 52 53 54 55 56 57 58 59 60 61 62 63 64 64 64 63 64 64 65 66
Wind_Direction
251 250 244 238 238 239 241 240 233 226 228 233 236 237 237 238 239 243 247 244 239 241 239 235 235 238 246 254 258 260 261 263 266 268 272 276 281 285 288 290 292 295 298 302 305 306 305 305 305 306 306 306 307 309 311 314 315 316 318 319 319 320 320 321 320 320 321 321 321 321 321 321 321 321 321 320 319 318 317 315 313 312 310 308 307
248 247 244 240 239 239 240 241 240 239 240 240 239 236 236 239 242 245 245 242 239 239 236 235 239 244 251 256 257 259 261 263 266 270 275 281 285 288 291 293 294 296 299 301 302 303 305 307 307 307 307 307 309 312 315 316 316 317 319 320 321 322 322 322 322 323 323 323 323 322 322 322 323 323 323 322 321 320 319 317 316 314 313 311 310
248 250 248 246 245 242 242 244 245 244 244 243 241 236 232 235 241 244 242 240 240 239 237 240 244 248 252 255 256 258 261 264 269 274 280 285 288 290 292 294 297 299 301 302 301 302 305 307 306 307 308 310 313 315 316 316 318 320 321 322 323 323 323 323 324 324 324 324 324 324 325 325 325 324 324 323 322 321 320 318 318 317 316 315 314
251 251 249 250 251 246 243 245 245 245 244 244 242 236 230 230 236 239 239 240 243 243 243 244 247 250 254 255 257 259 263 268 275 280 284 287 289 291 292 293 296 300 303 303 302 303 304 305 306 308 310 312 315 316 317 318 320 322 323 323 324 324 324 324 324 324 324 325 325 326 326 326 326 326 325 324 323 322 321 320 320 320 319 318 317
253 252 251 255 257 251 245 245 245 243 241 239 237 233 228 229 235 238 240 246 252 253 250 248 250 253 255 257 259 262 268 274 279 282 284 287 289 292 293 294 297 301 303 302 302 303 304 306 308 310 312 314 316 317 319 320 322 323 324 325 325 324 324 324 324 325 325 326 327 327 327 327 327 326 325 324 323 323 324 323 323 322 321 319 319
251 252 254 259 259 251 245 243 242 239 234 229 230 229 229 234 239 240 246 256 260 258 255 252 253 255 257 259 261 265 271 276 279 281 283 288 292 295 297 300 302 304 303 303 303 304 306 307 309 311 314 316 317 318 319 321 323 325 325 325 324 324 324 325 326 326 327 328 328 328 328 328 327 326 325 326 326 327 326 325 323 323 322 322 321
250 251 255 262 262 253 245 243 240 235 228 224 225 229 232 237 240 242 250 259 260 258 257 256 256 257 259 261 264 268 272 275 277 280 285 291 296 300 303 306 307 305 303 303 305 306 308 309 311 313 315 316 317 318 320 323 325 325 324 323 323 325 326 326 327 328 329 329 329 329 329 328 327 327 328 329 329 328 327 325 325 326 326 326 326
248 251 256 263 265 255 246 242 234 226 223 221 223 229 233 238 245 248 252 256 256 257 258 258 258 260 262 264 267 270 272 273 276 281 288 294 299 303 305 306 305 303 303 305 307 308 309 311 313 315 316 316 317 320 323 324 324 324 323 323 324 326 327 328 329 330 330 330 330 329 329 328 328 329 330 330 329 327 328 329 332 333 334 334 333
245 248 251 256 257 248 245 243 231 222 222 223 224 230 235 241 248 249 250 251 253 254 256 257 260 262 264 266 268 269 270 272 275 282 290 296 299 301 301 301 301 302 303 306 307 308 310 312 314 315 315 316 319 322 323 323 323 323 323 324 326 327 328 330 331 331 331 331 330 330 329 330 331 331 330 330 330 331 334 337 341 342 342 342 341
243 244 246 249 248 245 247 249 241 232 229 227 228 234 237 241 244 245 247 250 252 255 257 259 262 264 265 267 268 268 269 271 275 283 290 294 295 295 295 296 297 300 304 306 307 309 311 313 313 313 315 318 321 322 322 322 322 322 323 325 327 328 330 331 332 332 332 331 331 331 331 332 332 332 332 333 335 338 341 344 347 348 348 348 346
243 244 247 248 246 247 249 252 253 248 237 231 234 239 240 243 246 246 249 251 254 258 259 261 265 267 268 269 269 270 272 274 278 284 288 289 289 289 290 293 298 302 305 306 307 309 310 310 311 313 317 319 321 321 321 321 321 323 324 327 328 330 332 333 333 333 333 332 333 334 334 334 333 334 335 337 341 344 346 349 351 351 351 352 351
245 246 249 248 248 249 251 253 256 255 245 238 239 244 247 250 251 251 251 254 257 261 265 267 270 272 273 274 273 274 276 278 280 282 284 284 285 287 291 296 301 303 303 304 306 307 308 309 311 315 318 320 321 321 321 320 321 323 326 328 330 332 333 334 334 334 334 335 335 336 336 335 335 336 338 342 346 350 352 353 354 354 355 356 356
248 247 246 246 248 249 251 254 256 258 253 244 240 246 254 255 255 256 257 260 263 265 268 270 273 276 277 276 274 275 276 277 278 280 281 284 287 291 295 298 299 300 301 303 304 305 306 309 313 317 319 320 321 320 320 320 322 325 327 330 332 333 334 334 335 336 336 337 338 337 336 335 336 338 341 346 350 352 355 356 356 357 359 0 1
252 249 244 243 245 249 252 254 256 260 260 249 242 246 253 255 258 262 264 266 267 266 267 270 274 277 278 276 273 272 273 276 278 280 283 286 290 292 294 296 297 298 301 302 303 304 307 311 315 318 320 320 320 319 320 321 324 326 329 331 333 334 335 336 337 337 338 339 339 338 336 336 338 341 344 349 351 353 356 357 358 360 2 3 5
250 248 244 243 245 249 253 255 256 261 264 256 248 248 253 258 264 268 268 268 268 266 267 270 272 275 275 275 275 275 276 278 280 282 285 288 291 292 294 295 296 298 301 301 302 304 308 313 316 319 319 319 319 319 321 323 325 328 331 333 334 335 336 337 338 339 341 341 339 337 336 336 339 343 347 350 352 354 356 358 359 1 2 4 6
250 251 251 250 250 251 253 256 259 261 263 261 255 253 256 262 267 269 269 269 270 269 268 268 269 270 271 273 276 278 279 280 282 284 287 289 290 292 293 294 296 298 299 299 301 305 310 314 317 318 318 318 318 320 322 324 327 330 333 334 335 337 338 339 340 341 342 341 338 337 336 336 339 344 348 350 352 355 358 359 1 2 3 4 6
254 256 257 257 255 254 255 258 260 261 260 260 259 259 260 262 265 265 266 267 269 270 270 269 268 268 270 273 276 278 279 281 283 285 286 287 289 290 291 293 295 297 297 298 301 306 311 314 315 316 317 317 319 320 322 325 328 331 333 334 336 338 339 340 341 342 342 340 338 336 335 336 340 344 347 349 351 354 356 358 1 2 2 4 5
253 255 257 258 257 255 255 259 262 263 263 262 262 262 262 262 262 261 262 265 267 268 267 267 267 269 272 275 277 278 280 281 282 283 284 285 287 288 290 292 295 295 295 297 302 307 311 313 314 315 316 317 319 320 323 326 329 331 333 334 336 339 340 341 342 343 342 339 336 335 333 334 338 341 345 349 351 352 353 356 358 360 1 2 3
253 254 255 258 260 259 259 261 265 266 267 266 264 262 261 261 260 259 260 263 264 263 261 262 265 269 272 274 276 278 279 279 280 281 283 284 285 287 289 292 294 294 295 298 303 307 310 311 312 314 316 318 319 321 324 327 330 332 333 335 338 340 340 342 343 342 340 337 334 333 332 332 335 339 343 347 349 350 351 353 356 357 358 0 1
254 253 253 254 259 263 264 265 265 264 264 265 263 261 260 260 260 260 263 263 262 259 259 261 264 268 271 273 275 276 277 278 279 281 282 283 285 287 290 291 292 293 295 299 302 306 308 310 312 315 316 318 320 322 324 328 330 332 334 336 339 340 340 341 342 341 338 335 333 332 330 330 334 337 341 344 346 348 349 350 352 355 356 358 359
256 254 253 254 257 261 263 265 263 259 259 260 260 260 260 260 261 261 262 261 259 258 258 260 263 267 271 273 274 276 277 279 280 281 282 283 286 288 289 290 291 292 295 298 301 304 306 309 312 315 317 318 320 322 325 328 331 332 334 337 339 339 340 341 340 338 335 333 332 330 329 329 332 336 338 341 342 343 344 346 349 351 354 355 357
254 254 254 254 256 256 257 259 259 258 258 259 259 260 261 263 263 260 257 256 256 257 258 260 265 269 272 274 276 277 278 279 281 282 283 285 287 287 288 288 289 292 294 297 300 302 305 309 313 315 317 318 320 322 325 328 331 332 334 337 338 338 339 339 338 335 333 332 331 331 329 329 331 334 336 338 339 339 341 343 345 347 349 352 354
252 253 254 256 257 255 254 255 257 258 260 260 260 260 260 262 262 259 253 250 252 255 258 263 268 271 273 275 277 278 279 281 283 284 285 285 286 285 286 287 289 291 293 295 298 301 305 310 313 315 317 318 320 322 325 328 330 332 333 336 337 337 337 337 335 333 332 332 331 331 329 328 329 331 333 334 335 337 338 340 341 343 345 347 349
252 253 255 256 256 255 253 253 255 256 257 257 258 258 257 257 258 256 249 246 250 256 261 266 269 271 273 276 278 280 283 284 284 284 284 284 284 284 285 286 288 290 292 294 297 301 305 310 313 315 316 317 319 322 325 328 330 331 332 334 335 335 335 334 332 331 331 331 331 330 328 327 326 327 328 330 332 333 335 336 338 339 341 343 344
252 252 253 253 253 252 251 251 252 253 254 255 256 255 253 254 256 253 249 250 254 259 263 266 269 272 276 279 281 283 284 284 283 282 282 282 282 283 284 286 287 289 290 293 297 301 306 310 313 314 315 317 318 322 325 327 329 330 331 333 333 333 332 331 330 330 329 329 329 329 327 325 324 324 325 327 329 330 332 334 335 337 338 339 340
255 253 252 251 251 251 252 252 253 253 253 253 254 252 251 253 254 253 254 257 260 262 264 268 271 275 278 280 281 282 282 281 280 280 280 280 281 282 283 285 286 288 290 293 297 301 306 310 312 314 315 316 318 321 324 326 327 328 329 331 331 331 330 329 328 328 328 328 328 327 326 325 324 324 325 325 326 327 329 330 332 333 334 336 336
255 254 252 252 251 252 254 255 256 256 255 254 252 251 251 252 253 255 257 259 261 264 267 270 273 276 278 279 279 279 279 279 278 279 279 279 279 280 282 283 285 287 289 292 297 301 306 310 312 313 314 315 317 320 323 324 325 326 327 328 329 328 327 326 325 325 325 325 325 325 324 325 325 325 326 326 326 327 327 328 329 331 331 332 333
251 250 249 249 249 250 252 253 255 255 254 251 249 249 251 253 254 256 258 260 263 266 269 271 274 275 276 276 277 277 277 276 277 277 278 278 278 280 281 282 284 286 288 292 296 301 307 310 312 313 313 314 316 319 321 323 323 323 325 326 326 325 323 322 321 321 322 322 323 323 323 324 324 325 326 326 327 327 328 329 329 330 330 330 330
247 244 243 243 244 246 249 252 254 254 251 248 247 248 250 252 254 257 260 263 265 267 269 271 273 274 274 274 275 275 275 275 276 276 276 277 278 279 280 281 283 285 288 292 296 301 307 310 312 312 312 312 314 317 319 320 320 321 322 322 322 321 319 318 317 318 319 320 321 321 321 322 323 324 325 325 326 327 328 329 329 328 329 329 329
245 242 242 243 244 247 250 253 255 253 249 246 248 250 252 254 257 260 262 264 266 267 268 269 271 272 273 273 273 274 274 275 275 275 275 276 278 278 279 281 283 285 288 291 296 301 306 309 310 310 310 311 313 315 317 317 317 318 319 319 318 316 315 314 315 316 317 317 318 319 320 320 321 322 323 323 324 326 327 328 328 328 328 328 328
245 245 245 247 249 252 255 255 255 253 249 248 250 253 254 255 258 261 263 264 265 265 267 268 270 270 271 271 272 273 274 274 273 273 274 276 277 278 280 282 284 285 288 291 295 300 305 308 309 309 309 309 311 313 315 316 316 316 316 315 314 312 311 311 312 313 314 315 316 317 318 319 319 320 321 322 323 325 327 327 327 327 326 326 327
249 249 249 250 253 257 258 256 254 252 250 249 251 252 253 254 257 260 262 263 263 264 266 267 268 268 269 271 272 272 272 272 272 273 274 275 277 279 281 283 284 285 288 291 295 299 303 306 307 307 307 308 310 311 313 314 313 313 312 311 310 309 309 309 310 311 311 313 314 315 315 316 317 318 319 321 322 323 325 325 325 325 325 326 326
252 253 254 255 257 258 258 254 250 249 249 249 250 250 251 254 257 259 261 262 262 263 264 265 267 268 269 271 271 271 271 271 272 273 275 277 279 281 282 283 284 285 288 291 294 297 301 304 306 306 306 307 308 310 311 311 311 310 309 308 307 307 307 307 308 308 309 310 311 312 312 313 315 316 318 319 321 322 323 323 323 323 324 325 326
253 254 255 255 255 256 256 253 250 249 249 249 249 249 251 253 256 258 259 259 259 261 263 265 267 268 269 270 271 271 272 273 274 275 276 278 280 281 282 283 284 286 289 291 293 297 300 303 305 305 305 305 306 308 309 309 308 307 306 305 305 304 304 305 306 306 307 308 309 309 311 312 313 315 317 318 320 321 322 322 322 322 323 324 326
253 254 253 252 252 255 256 254 251 250 250 249 248 248 249 252 254 257 258 257 258 261 263 266 267 268 269 271 272 273 274 275 276 277 278 279 280 281 281 283 285 288 289 290 292 296 299 301 303 303 303 303 304 305 306 306 306 305 304 303 302 302 302 303 304 305 305 306 307 308 309 311 312 314 316 317 318 319 320 320 321 322 322 323 325
251 252 254 253 252 253 253 250 248 248 249 248 246 246 248 250 253 256 257 258 258 261 263 265 268 269 271 272 274 275 276 276 277 277 278 279 281 282 283 284 286 287 289 290 292 294 297 299 300 300 301 301 302 302 303 303 303 302 301 300 299 300 301 302 302 303 304 304 306 307 309 310 312 313 315 316 317 318 318 319 320 321 322 323 324
248 250 253 253 250 249 249 248 247 247 247 246 245 245 246 249 252 255 257 257 258 261 264 266 269 271 273 275 276 276 276 276 277 277 279 281 282 284 285 286 287 288 289 290 292 294 296 297 297 298 298 299 299 299 300 300 300 300 299 298 298 299 300 300 301 302 302 303 304 306 308 309 311 312 313 314 315 316 317 318 320 321 322 322 323
246 248 250 250 248 248 250 250 248 246 245 244 244 244 245 247 250 253 255 257 259 261 263 266 269 272 275 276 277 277 276 276 276 278 279 281 283 285 286 288 289 290 291 292 292 294 295 295 295 295 296 296 296 297 297 298 298 297 297 297 298 298 299 299 300 301 301 302 303 305 306 308 309 310 311 312 314 315 316 318 319 320 321 321 322
246 246 248 249 249 248 250 250 249 247 246 245 243 243 244 246 248 250 254 256 258 260 263 267 269 272 276 277 277 276 276 276 276 278 280 281 283 285 286 288 289 291 293 293 293 293 293 292 292 293 294 294 295 295 296 296 295 295 296 297 297 297 297 298 299 299 300 301 302 303 305 306 307 308 310 311 313 314 315 316 317 318 319 320 321
248 246 248 250 250 248 248 248 248 248 246 244 242 242 243 244 246 249 252 254 257 260 263 266 269 272 275 276 276 276 276 277 278 278 279 280 282 284 286 288 289 291 292 293 292 290 289 289 290 290 291 292 293 293 294 294 293 294 295 295 295 296 296 297 298 298 298 300 301 302 304 305 306 307 309 310 312 313 314 315 316 317 318 318 318
250 249 250 251 251 248 246 245 245 245 244 241 240 240 242 244 246 248 251 253 256 259 262 265 268 271 273 274 274 275 275 276 276 276 277 280 282 283 284 286 288 290 291 290 289 288 286 287 287 288 289 291 292 292 292 292 293 293 294 294 294 295 295 295 296 296 297 299 300 302 303 304 305 307 308 310 311 312 313 315 316 316 316 316 317
250 249 250 250 250 249 247 245 245 244 243 240 239 240 242 244 245 247 250 253 255 258 261 265 267 268 270 272 272 272 273 273 273 273 275 278 279 279 279 280 284 287 288 287 286 285 285 285 285 287 288 290 290 290 291 292 292 293 293 293 293 293 293 294 295 296 298 300 301 302 303 304 305 307 308 309 310 311 313 314 314 315 315 315 315
249 250 251 251 251 251 250 249 247 246 245 242 241 242 243 244 244 245 248 252 255 257 260 263 265 266 268 269 269 270 271 271 271 273 274 274 275 275 275 276 279 282 284 284 284 284 283 282 284 286 287 288 289 290 291 291 292 292 292 292 292 293 293 295 296 298 299 300 301 302 303 305 305 306 307 308 310 311 312 313 313 313 313 313 313
248 250 252 252 253 254 253 252 252 253 251 248 247 246 246 245 245 246 248 250 253 257 259 262 264 265 266 267 268 269 269 270 272 273 274 274 274 274 273 274 275 277 279 281 282 281 280 281 283 285 286 287 288 290 290 291 291 292 292 292 293 294 295 296 298 299 300 301 302 303 304 305 305 306 308 309 310 311 311 311 311 311 312 313 313
249 250 252 253 255 256 254 252 255 258 256 253 253 254 251 247 244 245 247 249 252 255 258 260 262 263 265 266 267 268 268 270 272 274 274 274 274 274 273 273 274 275 277 279 280 278 278 281 282 283 285 287 289 289 290 291 291 292 292 293 294 295 297 298 299 300 301 301 302 303 304 305 306 307 308 309 310 310 310 310 311 311 312 312 313
250 251 252 254 255 256 254 254 256 260 261 260 263 268 265 255 246 242 244 247 249 252 256 259 261 263 264 266 267 268 269 270 272 273 274 274 274 274 273 274 274 276 277 277 277 277 278 281 282 283 286 289 289 289 290 291 292 292 294 295 296 298 299 300 300 301 301 302 303 304 304 305 306 307 308 309 309 309 309 310 310 311 311 312 312
252 252 254 256 257 258 258 258 260 263 266 267 267 270 271 267 257 249 246 247 249 252 255 258 260 262 264 266 267 268 269 270 272 274 274 274 274 275 274 273 274 276 276 275 275 277 279 280 282 286 288 289 289 289 290 291 292 294 295 296 298 299 300 301 300 300 301 302 303 304 305 306 306 307 307 308 308 308 309 309 310 310 310 311 311
252 253 253 255 257 258 259 260 261 262 264 267 268 268 268 269 267 263 259 257 256 258 260 262 264 266 267 268 269 270 271 272 273 274 275 275 275 274 272 272 273 274 273 273 275 278 279 281 285 288 290 289 289 290 291 292 294 295 296 298 299 300 301 300 301 301 302 303 304 304 305 305 306 306 307 307 308 308 308 309 309 309 310 310 310
251 252 252 252 254 255 257 258 260 261 262 263 265 266 266 266 267 267 266 265 264 264 264 265 266 268 269 271 272 273 274 274 275 276 277 276 274 272 271 271 271 270 271 273 276 278 280 283 287 289 289 289 290 290 292 293 295 296 298 299 300 300 300 300 301 302 303 304 304 304 304 305 306 306 307 307 307 308 308 308 308 309 309 309 309
251 252 253 253 253 254 255 257 258 259 260 261 262 262 263 263 263 264 264 264 264 264 263 263 264 265 267 268 270 272 274 275 277 279 279 278 275 273 271 270 268 268 271 274 276 278 282 285 287 288 289 290 291 292 293 295 296 298 299 300 300 300 300 301 302 303 304 304 304 304 305 306 307 307 307 307 307 307 308 308 309 309 309 309 309
255 256 256 257 257 257 258 259 259 259 260 260 260 261 262 263 263 263 263 264 264 264 263 262 263 264 265 267 268 270 272 274 276 279 281 280 277 273 269 266 266 269 272 275 277 280 284 286 287 288 290 291 292 293 294 296 297 299 299 300 300 300 300 302 303 304 304 304 304 305 306 307 307 306 306 307 307 308 308 309 309 309 309 309 309
Height
5778 5777 5778 5779 5780 5780 5780 5779 5779 5781 5782 5784 5787 5788 5788 5789 5790 5791 5791 5791 5792 5793 5794 5795 5795 5796 5797 5798 5798 5799 5799 5800 5800 5800 5800 5800 5799 5799 5798 5798 5797 5796 5795 5793 5792 5790 5789 5787 5786 5784 5782 5780 5778 5776 5774 5771 5768 5766 5763 5761 5759 5756 5754 5751 5748 5745 5741 5738 5735 5731 5727 5723 5718 5714 5710 5705 5700 5695 5691 5687 5683 5679 5675 5672 5669
5775 5775 5777 5779 5780 5780 5779 5779 5779 5780 5782 5783 5785 5786 5787 5787 5788 5788 5789 5790 5790 5791 5792 5793 5794 5794 5795 5796 5796 5797 5797 5798 5798 5798 5797 5797 5797 5796 5796 5795 5794 5793 5792 5790 5789 5787 5786 5784 5782 5780 5778 5777 5775 5772 5770 5768 5765 5763 5761 5758 5755 5753 5750 5747 5744 5740 5737 5734 5730 5726 5722 5717 5713 5708 5703 5698 5693 5688 5683 5679 5675 5671 5667 5664 5660
5774 5776 5777 5777 5778 5779 5779 5778 5778 5779 5781 5782 5783 5784 5785 5786 5786 5786 5787 5788 5789 5789 5790 5791 5792 5793 5793 5794 5794 5795 5795 5796 5796 5795 5795 5795 5794 5794 5793 5792 5791 5790 5789 5787 5786 5784 5783 5781 5779 5777 5775 5773 5771 5769 5767 5765 5762 5760 5758 5755 5753 5750 5747 5743 5740 5736 5733 5730 5726 5721 5716 5712 5707 5702 5697 5692 5687 5682 5678 5673 5668 5664 5661 5657 5653
5773 5775 5776 5775 5776 5778 5777 5777 5777 5778 5779 5780 5781 5781 5782 5784 5785 5785 5785 5787 5787 5787 5788 5789 5790 5791 5792 5792 5793 5793 5793 5793 5793 5793 5793 5793 5792 5791 5790 5789 5788 5787 5786 5784 5783 5781 5779 5778 5776 5774 5772 5769 5768 5766 5764 5762 5759 5757 5754 5752 5750 5747 5744 5740 5737 5733 5729 5725 5721 5716 5711 5706 5702 5697 5693 5688 5682 5677 5672 5668 5664 5659 5655 5652 5648
5771 5773 5774 5774 5774 5775 5775 5775 5776 5777 5778 5778 5778 5778 5780 5782 5783 5783 5784 5785 5785 5786 5787 5788 5788 5789 5790 5790 5791 5791 5791 5791 5791 5791 5791 5790 5790 5789 5788 5787 5785 5784 5783 5781 5780 5778 5776 5774 5772 5770 5768 5766 5764 5763 5761 5759 5756 5754 5751 5749 5746 5743 5740 5737 5733 5729 5725 5720 5716 5711 5707 5701 5697 5692 5688 5684 5680 5674 5669 5664 5660 5656 5651 5647 5643
5770 5771 5771 5772 5772 5772 5773 5773 5774 5775 5776 5776 5775 5776 5778 5780 5780 5781 5782 5783 5784 5785 5785 5786 5787 5787 5788 5788 5788 5789 5789 5789 5789 5789 5788 5788 5787 5786 5785 5783 5782 5781 5779 5778 5777 5775 5773 5771 5769 5767 5765 5763 5761 5760 5758 5756 5753 5751 5748 5745 5743 5740 5737 5733 5729 5725 5721 5716 5711 5706 5702 5697 5693 5689 5684 5680 5676 5672 5667 5662 5657 5653 5649 5644 5640
5768 5769 5770 5770 5770 5771 5771 5772 5773 5774 5774 5774 5774 5775 5777 5778 5779 5780 5781 5782 5782 5783 5784 5784 5785 5785 5785 5786 5786 5786 5787 5787 5787 5786 5786 5785 5784 5783 5782 5780 5779 5778 5776 5775 5774 5772 5770 5768 5766 5764 5762 5760 5759 5757 5755 5753 5750 5748 5745 5742 5739 5736 5733 5729 5725 5721 5716 5712 5707 5702 5698 5693 5690 5686 5681 5677 5673 5669 5665 5661 5655 5650 5646 5642 5637
5766 5768 5769 5769 5768 5769 5770 5770 5771 5772 5772 5773 5774 5775 5776 5777 5778 5779 5780 5780 5781 5781 5782 5782 5782 5783 5783 5783 5784 5784 5784 5784 5784 5784 5783 5782 5781 5780 5779 5777 5776 5775 5774 5772 5771 5769 5767 5765 5763 5761 5759 5758 5756 5754 5752 5750 5748 5745 5742 5739 5736 5733 5729 5725 5721 5717 5712 5707 5703 5698 5694 5690 5686 5683 5679 5675 5672 5668 5663 5658 5653 5648 5643 5638 5634
5765 5768 5768 5767 5767 5768 5769 5769 5770 5771 5772 5772 5773 5774 5775 5777 5777 5778 5778 5778 5779 5779 5780 5780 5780 5781 5781 5781 5781 5782 5782 5782 5781 5781 5780 5779 5778 5777 5776 5775 5773 5772 5771 5769 5767 5766 5764 5762 5760 5758 5757 5755 5753 5751 5749 5747 5745 5742 5739 5736 5733 5729 5725 5722 5717 5713 5708 5704 5700 5695 5691 5687 5684 5680 5677 5673 5670 5666 5661 5656 5651 5646 5641 5636 5631
5764 5766 5766 5766 5766 5766 5767 5768 5769 5770 5771 5771 5772 5773 5774 5775 5775 5776 5776 5776 5777 5777 5777 5778 5778 5778 5778 5779 5779 5779 5779 5779 5778 5778 5777 5776 5775 5774 5773 5772 5771 5769 5768 5766 5764 5763 5761 5759 5758 5756 5755 5753 5751 5748 5746 5744 5742 5740 5737 5733 5730 5726 5722 5718 5714 5709 5705 5701 5697 5693 5689 5685 5682 5678 5674 5671 5667 5663 5659 5654 5649 5645 5640 5635 5631
5762 5764 5764 5765 5765 5765 5766 5767 5768 5769 5770 5770 5771 5772 5772 5773 5773 5773 5774 5774 5775 5775 5775 5775 5776 5776 5776 5776 5776 5776 5776 5776 5775 5775 5774 5773 5773 5772 5771 5769 5768 5766 5765 5763 5762 5760 5759 5757 5756 5754 5753 5751 5748 5746 5744 5741 5739 5736 5733 5730 5726 5723 5719 5715 5710 5706 5702 5698 5694 5690 5687 5683 5680 5676 5672 5668 5664 5660 5656 5652 5647 5643 5639 5634 5630
5761 5762 5763 5764 5764 5765 5765 5765 5766 5767 5768 5768 5769 5769 5770 5771 5771 5771 5772 5772 5772 5773 5773 5773 5773 5773 5773 5773 5773 5773 5772 5772 5772 5772 5771 5771 5770 5769 5768 5766 5765 5763 5762 5760 5759 5758 5756 5755 5754 5752 5750 5748 5746 5744 5741 5739 5736 5733 5730 5726 5723 5719 5715 5711 5707 5703 5699 5695 5691 5688 5685 5681 5678 5675 5671 5667 5663 5659 5654 5650 5646 5641 5636 5632 5628
5760 5761 5762 5763 5763 5764 5764 5764 5765 5765 5765 5766 5766 5767 5768 5768 5768 5769 5769 5770 5770 5770 5770 5771 5770 5770 5770 5770 5770 5770 5770 5770 5769 5769 5768 5768 5767 5766 5764 5763 5762 5761 5759 5758 5756 5755 5754 5753 5752 5750 5748 5746 5743 5741 5739 5737 5734 5730 5727 5724 5720 5716 5712 5708 5704 5700 5696 5692 5689 5686 5683 5680 5677 5673 5670 5666 5662 5658 5654 5650 5645 5641 5635 5631 5626
5758 5759 5760 5761 5762 5762 5763 5763 5764 5763 5763 5763 5764 5765 5765 5766 5767 5767 5767 5768 5768 5768 5768 5768 5767 5767 5767 5767 5767 5767 5767 5767 5766 5766 5765 5764 5764 5763 5762 5760 5759 5758 5757 5755 5754 5753 5752 5751 5749 5747 5745 5743 5741 5739 5736 5734 5731 5728 5724 5721 5717 5714 5710 5705 5701 5698 5694 5690 5687 5684 5681 5678 5675 5672 5669 5665 5661 5658 5654 5650 5645 5641 5636 5631 5626
5756 5757 5758 5759 5760 5761 5762 5762 5762 5762 5762 5762 5762 5763 5764 5764 5764 5765 5765 5765 5765 5765 5765 5765 5765 5765 5764 5764 5764 5764 5764 5764 5763 5763 5762 5762 5761 5760 5759 5758 5756 5755 5754 5752 5752 5751 5749 5748 5746 5744 5743 5741 5738 5736 5733 5730 5727 5724 5721 5718 5714 5711 5707 5703 5699 5695 5692 5688 5686 5683 5680 5677 5674 5671 5668 5664 5661 5657 5653 5649 5645 5640 5636 5632 5627
5753 5754 5756 5757 5758 5759 5759 5760 5760 5760 5760 5760 5761 5761 5762 5762 5762 5762 5762 5762 5763 5763 5763 5763 5762 5762 5762 5762 5762 5761 5761 5761 5760 5760 5759 5759 5758 5757 5756 5755 5754 5752 5751 5750 5749 5748 5747 5745 5743 5742 5740 5738 5736 5733 5730 5727 5724 5721 5718 5715 5711 5707 5703 5700 5696 5693 5690 5687 5684 5682 5679 5676 5673 5670 5667 5664 5660 5657 5653 5649 5646 5642 5638 5633 5629
5751 5752 5753 5755 5756 5756 5757 5757 5758 5758 5758 5758 5759 5759 5759 5759 5759 5759 5759 5760 5760 5760 5760 5760 5760 5759 5759 5759 5759 5759 5758 5758 5758 5757 5757 5756 5755 5754 5753 5752 5751 5750 5749 5748 5747 5745 5744 5742 5741 5739 5737 5735 5733 5730 5727 5725 5722 5719 5716 5712 5709 5705 5701 5697 5694 5691 5688 5686 5683 5680 5678 5675 5672 5669 5666 5663 5660 5656 5653 5650 5646 5643 5639 5635 5630
5747 5749 5750 5752 5753 5754 5755 5755 5755 5756 5756 5756 5756 5757 5756 5756 5756 5756 5757 5757 5757 5757 5757 5757 5757 5757 5756 5756 5756 5756 5756 5756 5755 5755 5754 5753 5752 5751 5750 5749 5748 5747 5746 5745 5744 5742 5741 5740 5738 5736 5734 5732 5730 5728 5725 5722 5719 5716 5713 5710 5706 5703 5699 5695 5692 5689 5686 5684 5682 5679 5677 5674 5672 5669 5666 5662 5659 5656 5653 5649 5646 5642 5639 5635 5631
5744 5746 5747 5748 5749 5751 5752 5752 5753 5753 5753 5753 5753 5753 5753 5753 5753 5754 5754 5755 5755 5754 5754 5754 5754 5754 5753 5753 5753 5753 5753 5753 5753 5752 5751 5750 5749 5748 5747 5746 5745 5744 5743 5742 5741 5740 5738 5737 5735 5733 5731 5729 5727 5724 5722 5719 5716 5713 5710 5707 5703 5700 5696 5693 5690 5687 5685 5683 5681 5678 5676 5673 5671 5668 5665 5662 5659 5656 5652 5649 5646 5642 5638 5634 5630
5741 5742 5744 5745 5746 5747 5748 5749 5750 5750 5750 5750 5750 5750 5750 5750 5750 5751 5751 5751 5751 5751 5751 5751 5751 5751 5751 5751 5751 5751 5751 5750 5750 5749 5748 5747 5746 5745 5744 5743 5742 5741 5740 5739 5738 5737 5736 5734 5732 5730 5728 5726 5724 5721 5719 5716 5713 5711 5707 5704 5700 5696 5693 5691 5688 5685 5683 5681 5679 5677 5674 5672 5669 5666 5663 5660 5658 5655 5652 5649 5646 5642 5638 5634 5630
5737 5739 5740 5742 5743 5744 5745 5746 5746 5747 5747 5747 5747 5747 5747 5747 5747 5747 5748 5748 5748 5748 5748 5748 5748 5748 5748 5748 5748 5748 5748 5747 5747 5746 5745 5744 5743 5742 5741 5740 5739 5738 5737 5736 5735 5734 5733 5731 5729 5727 5725 5723 5721 5718 5716 5713 5710 5708 5704 5701 5697 5694 5691 5689 5686 5684 5682 5680 5677 5675 5672 5670 5667 5664 5662 5659 5656 5654 5651 5648 5645 5642 5638 5635 5631
5734 5735 5737 5738 5740 5741 5742 5742 5743 5743 5744 5744 5744 5744 5744 5744 5743 5743 5744 5744 5744 5745 5745 5745 5745 5745 5745 5745 5745 5745 5745 5744 5743 5742 5741 5740 5740 5739 5738 5737 5736 5735 5734 5734 5732 5731 5730 5728 5726 5724 5722 5720 5718 5715 5713 5710 5708 5705 5701 5698 5695 5692 5689 5687 5684 5682 5680 5678 5675 5673 5670 5668 5665 5663 5660 5658 5655 5652 5649 5647 5644 5641 5637 5634 5630
5731 5733 5734 5735 5736 5737 5738 5739 5740 5740 5740 5740 5740 5741 5741 5741 5740 5739 5740 5741 5741 5742 5742 5742 5742 5742 5742 5742 5742 5742 5741 5741 5740 5739 5738 5737 5736 5736 5735 5734 5733 5732 5731 5731 5729 5728 5726 5725 5723 5721 5719 5717 5715 5712 5710 5707 5705 5702 5699 5695 5692 5690 5687 5685 5682 5680 5678 5676 5674 5671 5669 5666 5664 5661 5659 5656 5653 5651 5648 5645 5642 5639 5636 5633 5630
5728 5729 5731 5732 5733 5734 5735 5735 5736 5736 5737 5737 5737 5738 5738 5738 5738 5737 5738 5738 5739 5739 5739 5740 5740 5740 5739 5739 5739 5739 5738 5737 5737 5736 5735 5734 5733 5733 5732 5731 5730 5729 5728 5727 5726 5725 5723 5721 5719 5718 5716 5714 5712 5709 5707 5704 5702 5699 5696 5693 5690 5688 5685 5683 5681 5678 5676 5674 5672 5669 5667 5665 5662 5660 5658 5655 5652 5649 5646 5643 5640 5637 5634 5631 5628
5726 5727 5727 5728 5729 5730 5731 5732 5732 5733 5733 5734 5734 5735 5735 5735 5735 5735 5735 5736 5736 5736 5737 5737 5737 5736 5736 5736 5735 5735 5735 5734 5733 5733 5732 5731 5730 5730 5729 5728 5727 5726 5725 5724 5723 5722 5720 5718 5716 5715 5713 5711 5709 5706 5704 5702 5699 5696 5693 5690 5688 5685 5683 5681 5678 5676 5674 5672 5670 5667 5665 5663 5661 5658 5656 5653 5651 5648 5645 5642 5639 5636 5633 5630 5626
5723 5724 5725 5725 5726 5727 5728 5728 5729 5729 5730 5731 5731 5731 5732 5732 5732 5733 5733 5733 5733 5733 5733 5733 5733 5733 5733 5732 5732 5732 5731 5731 5730 5729 5729 5728 5727 5726 5726 5725 5724 5723 5722 5721 5720 5718 5717 5715 5713 5712 5710 5708 5706 5703 5701 5699 5696 5694 5691 5688 5685 5683 5681 5678 5676 5674 5672 5670 5668 5665 5663 5661 5659 5657 5654 5652 5649 5646 5644 5641 5639 5636 5633 5629 5626
5721 5721 5722 5723 5724 5724 5725 5725 5726 5726 5727 5728 5728 5728 5729 5729 5730 5730 5730 5730 5730 5730 5730 5730 5730 5729 5729 5729 5729 5729 5728 5727 5727 5726 5725 5725 5724 5723 5722 5722 5721 5720 5719 5718 5717 5715 5714 5712 5710 5708 5707 5705 5702 5700 5698 5696 5693 5691 5688 5685 5683 5680 5678 5676 5674 5672 5670 5668 5666 5663 5661 5659 5657 5654 5652 5650 5647 5644 5642 5639 5637 5634 5631 5629 5625
5718 5718 5719 5720 5721 5721 5722 5722 5723 5723 5724 5724 5725 5725 5726 5726 5727 5727 5727 5727 5727 5727 5727 5726 5726 5726 5726 5726 5726 5725 5725 5724 5723 5723 5722 5722 5721 5720 5719 5718 5717 5717 5716 5715 5713 5712 5710 5709 5707 5705 5703 5701 5699 5697 5695 5693 5690 5688 5685 5682 5680 5678 5676 5674 5672 5670 5668 5666 5664 5661 5659 5657 5655 5652 5650 5647 5645 5642 5640 5637 5635 5632 5629 5627 5624
5714 5715 5716 5717 5718 5718 5719 5719 5720 5720 5721 5721 5722 5722 5723 5723 5724 5724 5724 5724 5724 5723 5723 5723 5723 5723 5723 5723 5722 5722 5721 5721 5720 5720 5719 5718 5717 5717 5716 5715 5714 5713 5712 5711 5710 5708 5707 5705 5704 5702 5700 5698 5696 5694 5692 5690 5687 5685 5682 5680 5677 5675 5674 5672 5670 5668 5666 5664 5661 5659 5657 5655 5653 5650 5648 5645 5643 5640 5638 5635 5633 5630 5627 5625 5622
5711 5712 5712 5714 5715 5715 5716 5716 5716 5717 5717 5718 5718 5719 5719 5720 5720 5720 5720 5720 5720 5720 5720 5720 5720 5720 5720 5719 5719 5719 5718 5718 5717 5716 5715 5715 5714 5713 5713 5712 5711 5710 5709 5708 5706 5705 5703 5702 5700 5699 5697 5695 5693 5691 5689 5687 5685 5682 5680 5677 5675 5673 5671 5670 5668 5666 5664 5661 5659 5657 5655 5652 5650 5648 5646 5643 5641 5638 5636 5633 5631 5628 5625 5622 5620
5707 5708 5709 5710 5711 5712 5712 5713 5713 5714 5714 5715 5715 5715 5716 5716 5717 5717 5717 5717 5717 5717 5717 5717 5717 5717 5716 5716 5716 5715 5715 5714 5713 5713 5712 5711 5711 5710 5709 5708 5708 5707 5706 5704 5703 5702 5700 5699 5697 5695 5694 5692 5690 5688 5686 5684 5682 5679 5677 5674 5672 5670 5669 5667 5665 5663 5661 5659 5657 5654 5652 5650 5648 5646 5644 5641 5639 5636 5634 5631 5629 5626 5623 5620 5617
5703 5704 5705 5706 5707 5708 5709 5709 5710 5710 5711 5711 5712 5712 5712 5713 5713 5713 5713 5714 5714 5714 5714 5714 5714 5713 5713 5713 5712 5712 5711 5711 5710 5709 5709 5708 5707 5707 5706 5705 5704 5703 5702 5701 5700 5698 5697 5695 5694 5692 5690 5688 5686 5685 5683 5681 5679 5676 5674 5672 5670 5668 5666 5664 5662 5660 5658 5656 5654 5652 5650 5648 5646 5643 5641 5639 5637 5634 5632 5629 5626 5623 5620 5617 5614
5699 5700 5701 5702 5703 5704 5704 5705 5706 5706 5707 5707 5708 5708 5709 5709 5710 5710 5710 5710 5710 5710 5710 5710 5710 5710 5710 5709 5709 5708 5708 5707 5706 5706 5705 5705 5704 5703 5702 5702 5701 5700 5699 5698 5696 5695 5694 5692 5690 5689 5687 5685 5683 5681 5679 5678 5676 5673 5671 5669 5667 5665 5663 5661 5660 5658 5656 5653 5651 5649 5647 5645 5643 5641 5639 5636 5634 5631 5629 5626 5624 5621 5618 5615 5612
5694 5695 5696 5697 5698 5699 5700 5701 5702 5702 5703 5703 5704 5704 5705 5706 5706 5706 5706 5707 5707 5707 5707 5707 5707 5707 5706 5706 5705 5705 5704 5704 5703 5702 5702 5701 5700 5700 5699 5698 5697 5696 5695 5694 5693 5692 5690 5689 5687 5685 5684 5682 5680 5678 5676 5674 5672 5670 5668 5666 5664 5662 5660 5658 5657 5655 5653 5651 5649 5647 5645 5642 5640 5638 5636 5633 5631 5628 5626 5623 5620 5618 5615 5612 5609
5690 5691 5692 5693 5694 5695 5696 5697 5697 5698 5699 5700 5700 5701 5701 5702 5702 5703 5703 5703 5704 5704 5704 5704 5703 5703 5703 5702 5702 5701 5701 5700 5699 5699 5698 5698 5697 5696 5695 5695 5694 5693 5692 5691 5690 5688 5687 5685 5684 5682 5680 5678 5676 5675 5673 5671 5669 5667 5665 5663 5661 5659 5657 5655 5653 5652 5649 5647 5646 5644 5642 5640 5637 5635 5633 5630 5628 5625 5623 5620 5617 5614 5612 5609 5606
5686 5687 5688 5688 5689 5690 5691 5691 5693 5694 5695 5695 5696 5697 5698 5698 5699 5699 5699 5700 5700 5700 5700 5700 5700 5699 5699 5698 5698 5698 5697 5696 5696 5695 5694 5694 5693 5693 5692 5691 5690 5689 5688 5687 5686 5685 5683 5682 5680 5678 5677 5675 5673 5671 5669 5668 5666 5664 5662 5660 5657 5655 5654 5652 5650 5648 5646 5644 5642 5640 5638 5636 5634 5632 5629 5627 5624 5622 5619 5617 5614 5611 5608 5605 5603
5681 5682 5683 5684 5685 5685 5686 5687 5688 5689 5690 5691 5692 5693 5694 5694 5695 5695 5695 5696 5696 5697 5697 5696 5696 5696 5695 5695 5695 5694 5693 5693 5692 5691 5691 5690 5690 5689 5688 5687 5686 5685 5684 5683 5682 5681 5679 5678 5676 5675 5673 5671 5669 5668 5666 5664 5662 5660 5658 5656 5654 5652 5650 5648 5647 5645 5643 5641 5639 5637 5635 5633 5630 5628 5626 5624 5621 5618 5616 5613 5610 5607 5605 5602 5599
5676 5677 5678 5679 5680 5681 5682 5683 5684 5685 5686 5687 5688 5689 5690 5690 5691 5691 5691 5692 5692 5693 5693 5692 5692 5692 5692 5691 5691 5690 5689 5689 5688 5688 5687 5686 5686 5685 5684 5683 5683 5682 5680 5679 5678 5677 5675 5674 5672 5671 5669 5667 5666 5664 5662 5660 5659 5657 5655 5653 5651 5649 5647 5645 5643 5641 5639 5637 5635 5633 5631 5629 5627 5624 5622 5620 5617 5615 5612 5609 5606 5603 5600 5598 5595
5671 5672 5673 5674 5675 5676 5677 5678 5680 5681 5682 5683 5684 5685 5685 5686 5686 5686 5687 5687 5688 5688 5688 5688 5688 5688 5688 5688 5687 5687 5686 5685 5685 5684 5684 5683 5682 5681 5680 5679 5678 5677 5676 5675 5674 5672 5671 5670 5668 5667 5665 5664 5662 5660 5658 5656 5655 5653 5651 5649 5647 5645 5643 5641 5639 5637 5635 5633 5631 5629 5627 5625 5623 5620 5618 5615 5613 5610 5607 5605 5602 5599 5596 5593 5591
5667 5668 5668 5669 5670 5672 5673 5674 5675 5676 5677 5678 5679 5680 5680 5681 5681 5682 5682 5683 5683 5684 5684 5684 5684 5684 5684 5684 5683 5683 5682 5681 5681 5681 5680 5679 5678 5677 5676 5675 5674 5673 5672 5670 5669 5668 5666 5665 5664 5663 5661 5660 5658 5656 5654 5653 5651 5649 5647 5645 5643 5641 5639 5637 5635 5633 5631 5629 5627 5625 5623 5621 5618 5616 5614 5611 5608 5605 5602 5600 5597 5594 5591 5588 5586
5663 5663 5664 5665 5666 5667 5668 5669 5670 5670 5671 5672 5673 5674 5675 5676 5677 5677 5677 5678 5679 5679 5680 5679 5680 5680 5680 5680 5679 5678 5678 5677 5677 5676 5676 5675 5674 5673 5672 5671 5670 5669 5667 5666 5664 5663 5662 5661 5660 5658 5657 5656 5654 5652 5650 5649 5647 5645 5643 5641 5639 5637 5635 5633 5631 5629 5627 5625 5623 5621 5619 5616 5614 5612 5609 5606 5603 5600 5598 5595 5592 5589 5586 5583 5580
5659 5659 5660 5661 5662 5663 5664 5664 5665 5665 5665 5666 5667 5668 5670 5671 5671 5672 5672 5673 5674 5674 5675 5675 5675 5675 5675 5675 5674 5674 5673 5673 5672 5672 5671 5670 5669 5668 5667 5666 5665 5664 5662 5661 5659 5658 5657 5656 5655 5654 5653 5651 5650 5648 5646 5645 5643 5641 5639 5637 5635 5633 5631 5629 5627 5625 5623 5621 5619 5616 5614 5612 5609 5607 5604 5601 5598 5595 5592 5589 5586 5583 5580 5577 5575
5655 5655 5656 5657 5657 5658 5659 5660 5660 5661 5661 5661 5662 5663 5664 5665 5666 5666 5667 5668 5669 5669 5670 5670 5670 5670 5670 5669 5669 5669 5668 5668 5667 5666 5666 5665 5664 5663 5662 5661 5660 5658 5657 5656 5654 5653 5652 5652 5651 5650 5648 5647 5646 5644 5642 5641 5639 5637 5635 5633 5631 5629 5627 5625 5623 5621 5619 5616 5614 5612 5609 5607 5604 5602 5599 5596 5593 5590 5587 5584 5581 5578 5575 5572 5569
5651 5651 5652 5653 5653 5654 5654 5655 5656 5657 5657 5657 5658 5658 5659 5659 5660 5661 5662 5663 5664 5664 5664 5664 5665 5665 5664 5664 5663 5663 5663 5662 5661 5661 5660 5660 5659 5657 5656 5655 5654 5653 5652 5650 5649 5648 5648 5647 5646 5645 5644 5643 5641 5640 5638 5637 5635 5633 5631 5629 5627 5625 5623 5621 5618 5616 5614 5611 5609 5607 5604 5602 5599 5596 5593 5590 5587 5584 5581 5578 5575 5572 5569 5566 5562
5646 5647 5648 5648 5649 5649 5650 5651 5651 5651 5651 5651 5652 5653 5654 5654 5655 5656 5657 5658 5658 5658 5658 5659 5659 5659 5659 5658 5658 5658 5657 5657 5656 5656 5655 5654 5653 5651 5650 5649 5648 5647 5646 5645 5644 5643 5643 5643 5642 5641 5640 5638 5637 5635 5634 5632 5630 5628 5626 5624 5622 5620 5618 5616 5614 5611 5609 5606 5604 5601 5599 5596 5593 5590 5587 5584 5581 5578 5575 5571 5568 5565 5562 5558 5555
5642 5643 5644 5644 5644 5645 5646 5646 5646 5646 5646 5646 5647 5648 5649 5649 5649 5650 5651 5652 5652 5652 5653 5654 5654 5653 5653 5653 5652 5652 5652 5651 5651 5650 5649 5648 5646 5645 5644 5643 5642 5642 5641 5640 5639 5639 5638 5638 5637 5636 5635 5633 5632 5631 5629 5627 5625 5624 5621 5619 5617 5615 5613 5611 5609 5606 5604 5601 5599 5596 5593 5590 5587 5584 5581 5578 5575 5572 5568 5565 5561 5558 5555 5551 5548
5638 5639 5639 5640 5640 5641 5641 5641 5642 5642 5642 5642 5642 5643 5644 5644 5645 5646 5646 5647 5647 5647 5648 5648 5648 5647 5647 5647 5647 5646 5646 5646 5645 5644 5643 5641 5640 5639 5639 5638 5637 5636 5635 5635 5634 5634 5634 5633 5632 5631 5630 5629 5627 5626 5624 5623 5621 5619 5616 5614 5612 5610 5608 5606 5603 5601 5598 5596 5593 5590 5587 5584 5581 5578 5575 5572 5569 5565 5561 5558 5554 5551 5547 5544 5540
5634 5635 5635 5636 5636 5636 5637 5637 5637 5638 5638 5638 5638 5638 5639 5639 5640 5641 5642 5642 5642 5642 5643 5643 5642 5642 5641 5641 5640 5640 5640 5639 5639 5638 5636 5635 5634 5633 5632 5632 5631 5631 5630 5630 5630 5630 5629 5628 5627 5626 5625 5624 5623 5621 5619 5618 5616 5613 5611 5609 5607 5605 5603 5600 5598 5595 5593 5590 5587 5584 5581 5578 5575 5572 5569 5565 5562 5558 5554 5551 5547 5543 5540 5536 5532
5629 5630 5631 5631 5631 5632 5632 5632 5633 5633 5633 5633 5634 5634 5634 5634 5635 5635 5636 5636 5637 5637 5637 5637 5636 5636 5635 5635 5635 5634 5634 5633 5632 5631 5630 5629 5628 5627 5627 5626 5626 5625 5625 5625 5625 5625 5624 5623 5622 5622 5621 5619 5618 5616 5614 5612 5610 5608 5606 5604 5602 5600 5597 5594 5592 5589 5587 5584 5581 5578 5575 5572 5568 5565 5561 5558 5554 5551 5547 5543 5539 5535 5531 5528 5524
5625 5625 5626 5626 5627 5627 5627 5628 5628 5629 5629 5629 5629 5629 5629 5629 5630 5630 5630 5630 5631 5631 5631 5631 5631 5630 5630 5630 5629 5629 5628 5627 5626 5625 5624 5623 5623 5622 5622 5622 5621 5620 5620 5621 5621 5620 5619 5619 5618 5617 5616 5614 5613 5611 5609 5607 5605 5603 5601 5599 5596 5594 5591 5589 5586 5584 5581 5578 5574 5571 5568 5565 5561 5557 5554 5550 5546 5543 5539 5535 5531 5527 5523 5519 5515
5621 5621 5621 5622 5622 5622 5622 5623 5623 5623 5624 5624 5624 5624 5624 5624 5624 5625 5625 5625 5625 5625 5625 5625 5625 5624 5624 5624 5624 5623 5622 5621 5621 5620 5619 5618 5618 5618 5617 5616 5616 5616 5616 5616 5616 5615 5615 5614 5613 5612 5611 5609 5608 5606 5603 5601 5599 5597 5595 5593 5590 5588 5585 5583 5580 5578 5574 5571 5567 5564 5560 5557 5553 5550 5546 5542 5538 5534 5530 5526 5522 5518 5514 5510 5506